Quincy, IL

7:42 PM CDT on October 17, 2017 (GMT -0500)
Quincy Regional-Baldwin

Weather History for KUIN - March, 2015

Change the Weather History Date:

Wednesday, March 4, 2015

  Actual Average Record
Temperature  
Mean Temperature 21 °F 37 °F  
Max Temperature 28 °F 46 °F 73 °F (1961)
Min Temperature 13 °F 28 °F -8 °F (1978)
Degree Days  
Heating Degree Days 44 28  
Month to date heating degree days 155 114  
Since 1 July heating degree days 4821 4456  
Cooling Degree Days 0 0  
Month to date cooling degree days 0 0  
Year to date cooling degree days 0 0  
Moisture  
Dew Point 6 °F    
Average Humidity 59    
Maximum Humidity 73    
Minimum Humidity 45    
Precipitation  
Precipitation 0.00 in 0.08 in 1.74 in (1964)
Month to date precipitation 0.18 0.32  
Year to date precipitation 2.22 3.72  
Sea Level Pressure  
Sea Level Pressure 30.27 in    
Wind  
Wind Speed 12 mph (NNW)    
Max Wind Speed 24 mph    
Max Gust Speed 31 mph    
Visibility 10 miles    
Events      
T = Trace of Precipitation, MM = Missing Value Source: NWS Daily Summary

Daily Weather History Graph

Daily Weather History Graph

Search for Another Location

Airport or City:

Trip Planner

Search our weather history database for the weather conditions in past years. The results will help you decide how hot, cold, wet, or windy it might be!

Date:

Astronomy

Mar. 04, 2015 Rise Set
Actual Time 6:33 AM CST 5:59 PM CST
Civil Twilight 6:06 AM CST 6:26 PM CST
Nautical Twilight 5:35 AM CST 6:58 PM CST
Astronomical Twilight 5:04 AM CST 7:29 PM CST
Moon 5:18 PM CST (3/4) 5:47 AM CST (3/4)
Length of Visible Light 12h 20m
Length of Day
11h 25m
Waxing Gibbous, 99% of the Moon is Illuminated
Mar 4
Waxing Gibbous
Mar 5
Full
Mar 13
Last Quarter
Mar 20
New
Mar 27
First Quarter

Hourly Weather History & Observations

Time (CST) Temp. Windchill Dew Point Humidity Pressure Visibility Wind Dir Wind Speed Gust Speed Precip Events Conditions
12:54 AM 26.1 °F 13.6 °F 17.1 °F 69% 30.02 in 10.0 mi NNW 16.1 mph - N/A   Clear
1:54 AM 24.1 °F 10.6 °F 15.1 °F 69% 30.06 in 10.0 mi NNW 17.3 mph - N/A   Clear
2:54 AM 19.9 °F 2.8 °F 10.9 °F 68% 30.10 in 10.0 mi NW 24.2 mph - N/A   Overcast
3:54 AM 17.1 °F 1.0 °F 8.1 °F 68% 30.13 in 10.0 mi NNW 18.4 mph - N/A   Scattered Clouds
4:54 AM 16.0 °F 2.3 °F 7.0 °F 68% 30.13 in 10.0 mi North 12.7 mph - N/A   Clear
5:54 AM 14.0 °F -3.0 °F 6.1 °F 71% 30.18 in 10.0 mi NNW 18.4 mph - N/A   Clear
6:54 AM 14.0 °F -1.4 °F 3.0 °F 62% 30.20 in 10.0 mi NNW 15.0 mph - N/A   Partly Cloudy
7:54 AM 15.1 °F -1.1 °F 3.0 °F 59% 30.23 in 10.0 mi NNW 17.3 mph - N/A   Overcast
8:54 AM 15.8 °F 0.3 °F 3.2 °F 58% 30.24 in 10.0 mi NNW 16.1 mph - N/A   Overcast
9:54 AM 17.1 °F 2.5 °F 5.0 °F 59% 30.28 in 10.0 mi NNW 15.0 mph - N/A   Overcast
10:54 AM 18.0 °F 3.1 °F 3.9 °F 54% 30.27 in 10.0 mi NNW 16.1 mph - N/A   Overcast
11:54 AM 19.9 °F 5.7 °F 3.0 °F 48% 30.27 in 10.0 mi NNW 16.1 mph - N/A   Overcast
12:54 PM 21.0 °F 6.6 °F 1.9 °F 44% 30.28 in 10.0 mi NNW 17.3 mph - N/A   Mostly Cloudy
1:54 PM 21.0 °F 8.1 °F 3.9 °F 48% 30.28 in 10.0 mi NNW 13.8 mph - N/A   Mostly Cloudy
2:54 PM 21.9 °F 11.0 °F 3.9 °F 46% 30.29 in 10.0 mi North 10.4 mph - N/A   Mostly Cloudy
3:54 PM 21.0 °F 7.6 °F 3.0 °F 46% 30.31 in 10.0 mi NNE 15.0 mph - N/A   Partly Cloudy
4:54 PM 21.0 °F 9.3 °F 3.9 °F 48% 30.32 in 10.0 mi NNE 11.5 mph - N/A   Clear
5:54 PM 19.9 °F 9.3 °F 5.0 °F 52% 30.33 in 10.0 mi NNE 9.2 mph - N/A   Clear
6:54 PM 19.0 °F - 3.9 °F 52% 30.38 in 10.0 mi Calm Calm - N/A   Clear
7:54 PM 19.0 °F 13.9 °F 6.1 °F 57% 30.40 in 10.0 mi SSE 3.5 mph - N/A   Clear
8:54 PM 19.0 °F - 6.1 °F 57% 30.40 in 10.0 mi Calm Calm - N/A   Clear
9:54 PM 18.0 °F - 6.1 °F 60% 30.42 in 10.0 mi Calm Calm - N/A   Clear
10:54 PM 18.0 °F - 5.0 °F 57% 30.43 in 10.0 mi Calm Calm - N/A   Clear
11:54 PM 14.0 °F 6.5 °F 6.1 °F 71% 30.43 in 10.0 mi NW 4.6 mph - N/A   Partly Cloudy